Zurück zum Katalog

TIANQI 40

AktivKommunikationLEO
NORAD 67479·PAYLOAD·🇨🇳 China

Gestartet Jan 15, 2026 von Yellow Sea Launch Area

Loading…

Nächste Überflüge (nächste 24 Stunden)

TLE

AktuellSource: Space-Track

Epoche: Sep 14, 2026, 10:48 UTC

1 67479U 26010D   26257.45011302 -.00000010  00000-0  81426-4 0  9997
2 67479  44.9835  44.7791 0009464  44.0496 316.1089 13.99171596 33892

Verfolge TIANQI 40 in Echtzeit mit AllMySat

Download on the App Store